This is the latest recevied weather packets stored in our database for station/object IZ2XCK-13. If no packets are shown the sender has not sent any weather packets the latest 10 day(s).
| Time | Temp. | Humidity | Pressure | Rain* | Wind** | Luminosity | Snow |
|---|---|---|---|---|---|---|---|
| 1777872296 | 14.44° C | 49% | 1018.9 hPa | - | - | - | - |
| 1777871095 | 14.44° C | 45% | 1018.8 hPa | - | - | - | - |
| 1777869895 | 14.44° C | 46% | 1018.7 hPa | - | - | - | - |
| 1777868694 | 14.44° C | 45% | 1018.6 hPa | - | - | - | - |
| 1777867494 | 13.89° C | 44% | 1018.5 hPa | - | - | - | - |
| 1777866294 | 14.44° C | 43% | 1018.6 hPa | - | - | - | - |
| 1777865093 | 14.44° C | 43% | 1018.7 hPa | - | - | - | - |
| 1777863893 | 14.44° C | 45% | 1018.6 hPa | - | - | - | - |
| 1777862693 | 14.44° C | 44% | 1018.5 hPa | - | - | - | - |
| 1777861493 | 14.44° C | 44% | 1018.7 hPa | - | - | - | - |
| 1777860292 | 15.56° C | 42% | 1018.8 hPa | - | - | - | - |
| 1777859092 | 15° C | 43% | 1019 hPa | - | - | - | - |
| 1777857892 | 15° C | 43% | 1019.1 hPa | - | - | - | - |
| 1777856691 | 15° C | 43% | 1019.1 hPa | - | - | - | - |
| 1777855491 | 15.56° C | 42% | 1019.1 hPa | - | - | - | - |
| 1777854291 | 15.56° C | 43% | 1019.2 hPa | - | - | - | - |
| 1777853090 | 16.11° C | 43% | 1019.4 hPa | - | - | - | - |
| 1777851890 | 16.67° C | 41% | 1019.5 hPa | - | - | - | - |
| 1777850690 | 16.67° C | 42% | 1019.7 hPa | - | - | - | - |
| 1777849489 | 16.67° C | 42% | 1019.8 hPa | - | - | - | - |
| 1777848289 | 16.67° C | 41% | 1019.8 hPa | - | - | - | - |
| 1777847089 | 16.11° C | 42% | 1019.8 hPa | - | - | - | - |
| 1777845889 | 16.67° C | 41% | 1019.6 hPa | - | - | - | - |
| 1777844688 | 16.67° C | 40% | 1019.5 hPa | - | - | - | - |
| 1777843488 | 17.22° C | 39% | 1019.4 hPa | - | - | - | - |
* Rain since midnight (hover to see other rain measurements)
** Current wind speed in m/s (hover to see current wind gust speed)